Year,Month,Day,Hour,Minute,Value (Times are PST for temperature in C)
2018,07,15,00,00,13.60
2018,07,15,00,01,13.60
2018,07,15,00,02,13.70
2018,07,15,00,03,13.70
2018,07,15,00,04,13.80
2018,07,15,00,05,13.80
2018,07,15,00,06,13.80
2018,07,15,00,07,13.80
2018,07,15,00,08,13.90
2018,07,15,00,09,13.90
2018,07,15,00,10,13.90
2018,07,15,00,11,13.90
2018,07,15,00,12,14.00
2018,07,15,00,13,14.00
2018,07,15,00,14,14.10
2018,07,15,00,15,14.10
2018,07,15,00,16,14.10
2018,07,15,00,17,14.20
2018,07,15,00,18,14.20
2018,07,15,00,19,14.20
2018,07,15,00,20,14.10
2018,07,15,00,21,14.10
2018,07,15,00,22,14.10
2018,07,15,00,23,14.10
2018,07,15,00,24,14.10
2018,07,15,00,25,14.10
2018,07,15,00,26,14.00
2018,07,15,00,27,14.00
2018,07,15,00,28,14.00
2018,07,15,00,29,14.00
2018,07,15,00,30,13.90
2018,07,15,00,31,13.90
2018,07,15,00,32,13.90
2018,07,15,00,33,13.90
2018,07,15,00,34,13.90
2018,07,15,00,35,13.90
2018,07,15,00,36,13.90
2018,07,15,00,37,13.90
2018,07,15,00,38,14.00
2018,07,15,00,39,14.00
2018,07,15,00,40,14.00
2018,07,15,00,41,14.00
2018,07,15,00,42,14.00
2018,07,15,00,43,14.00
2018,07,15,00,44,14.00
2018,07,15,00,45,13.90
2018,07,15,00,46,13.90
2018,07,15,00,47,14.00
2018,07,15,00,48,14.00
2018,07,15,00,49,14.10
2018,07,15,00,50,14.10
2018,07,15,00,51,14.20
2018,07,15,00,52,14.20
2018,07,15,00,53,14.20
2018,07,15,00,54,14.20
2018,07,15,00,55,14.20
2018,07,15,00,56,14.20
2018,07,15,00,57,14.20
2018,07,15,00,58,14.20
2018,07,15,00,59,14.20
2018,07,15,01,00,14.20
2018,07,15,01,01,14.20
2018,07,15,01,02,14.10
2018,07,15,01,03,14.10
2018,07,15,01,04,14.00
2018,07,15,01,05,14.00
2018,07,15,01,06,14.00
2018,07,15,01,07,14.00
2018,07,15,01,08,14.00
2018,07,15,01,09,14.10
2018,07,15,01,10,14.10
2018,07,15,01,11,14.10
2018,07,15,01,12,14.20
2018,07,15,01,13,14.20
2018,07,15,01,14,14.10
2018,07,15,01,15,14.10
2018,07,15,01,16,14.10
2018,07,15,01,17,14.10
2018,07,15,01,18,14.10
2018,07,15,01,19,14.20
2018,07,15,01,20,14.20
2018,07,15,01,21,14.10
2018,07,15,01,22,14.10
2018,07,15,01,23,14.10
2018,07,15,01,24,14.20
2018,07,15,01,25,14.20
2018,07,15,01,26,14.20
2018,07,15,01,27,14.20
2018,07,15,01,28,14.20
2018,07,15,01,29,14.20
2018,07,15,01,30,14.20
2018,07,15,01,31,14.20
2018,07,15,01,32,14.20
2018,07,15,01,33,14.20
2018,07,15,01,34,14.20
2018,07,15,01,35,14.20
2018,07,15,01,36,14.20
2018,07,15,01,37,14.20
2018,07,15,01,38,14.20
2018,07,15,01,39,14.20
2018,07,15,01,40,14.10
2018,07,15,01,41,14.10
2018,07,15,01,42,14.10
2018,07,15,01,43,14.10
2018,07,15,01,44,14.10
2018,07,15,01,45,14.10
2018,07,15,01,46,14.10
2018,07,15,01,47,14.10
2018,07,15,01,48,14.10
2018,07,15,01,49,14.00
2018,07,15,01,50,13.90
2018,07,15,01,51,13.80
2018,07,15,01,52,13.80
2018,07,15,01,53,13.80
2018,07,15,01,54,13.80
2018,07,15,01,55,13.70
2018,07,15,01,56,13.70
2018,07,15,01,57,13.60
2018,07,15,01,58,13.60
2018,07,15,01,59,13.60
2018,07,15,02,00,13.60
2018,07,15,02,01,13.60
2018,07,15,02,02,13.60
2018,07,15,02,03,13.60
2018,07,15,02,04,13.60
2018,07,15,02,05,13.60
2018,07,15,02,06,13.60
2018,07,15,02,07,13.50
2018,07,15,02,08,13.50
2018,07,15,02,09,13.50
2018,07,15,02,10,13.50
2018,07,15,02,11,13.40
2018,07,15,02,12,13.40
2018,07,15,02,13,13.40
2018,07,15,02,14,13.40
2018,07,15,02,15,13.40
2018,07,15,02,16,13.30
2018,07,15,02,17,13.30
2018,07,15,02,18,13.30
2018,07,15,02,19,13.30
2018,07,15,02,20,13.30
2018,07,15,02,21,13.30
2018,07,15,02,22,13.30
2018,07,15,02,23,13.20
2018,07,15,02,24,13.20
2018,07,15,02,25,13.10
2018,07,15,02,26,13.10
2018,07,15,02,27,13.10
2018,07,15,02,28,13.10
2018,07,15,02,29,13.00
2018,07,15,02,30,13.10
2018,07,15,02,31,13.10
2018,07,15,02,32,13.10
2018,07,15,02,33,13.10
2018,07,15,02,34,13.10
2018,07,15,02,35,13.10
2018,07,15,02,36,13.10
2018,07,15,02,37,13.10
2018,07,15,02,38,13.10
2018,07,15,02,39,13.10
2018,07,15,02,40,13.20
2018,07,15,02,41,13.20
2018,07,15,02,42,13.20
2018,07,15,02,43,13.20
2018,07,15,02,44,13.20
2018,07,15,02,45,13.20
2018,07,15,02,46,13.30
2018,07,15,02,47,13.30
2018,07,15,02,48,13.40
2018,07,15,02,49,13.40
2018,07,15,02,50,13.50
2018,07,15,02,51,13.60
2018,07,15,02,52,13.60
2018,07,15,02,53,13.60
2018,07,15,02,54,13.60
2018,07,15,02,55,13.60
2018,07,15,02,56,13.60
2018,07,15,02,57,13.60
2018,07,15,02,58,13.60
2018,07,15,02,59,13.60
2018,07,15,03,00,13.70
2018,07,15,03,01,13.70
2018,07,15,03,02,13.70
2018,07,15,03,03,13.70
2018,07,15,03,04,13.70
2018,07,15,03,05,13.70
2018,07,15,03,06,13.70
2018,07,15,03,07,13.70
2018,07,15,03,08,13.70
2018,07,15,03,09,13.70
2018,07,15,03,10,13.70
2018,07,15,03,11,13.70
2018,07,15,03,12,13.70
2018,07,15,03,13,13.60
2018,07,15,03,14,13.60
2018,07,15,03,15,13.50
2018,07,15,03,16,13.40
2018,07,15,03,17,13.40
2018,07,15,03,18,13.40
2018,07,15,03,19,13.30
2018,07,15,03,20,13.30
2018,07,15,03,21,13.30
2018,07,15,03,22,13.20
2018,07,15,03,23,13.20
2018,07,15,03,24,13.20
2018,07,15,03,25,13.20
2018,07,15,03,26,13.10
2018,07,15,03,27,13.20
2018,07,15,03,28,13.20
2018,07,15,03,29,13.20
2018,07,15,03,30,13.20
2018,07,15,03,31,13.20
2018,07,15,03,32,13.20
2018,07,15,03,33,13.20
2018,07,15,03,34,13.20
2018,07,15,03,35,13.20
2018,07,15,03,36,13.20
2018,07,15,03,37,13.20
2018,07,15,03,38,13.20
2018,07,15,03,39,13.20
2018,07,15,03,40,13.20
2018,07,15,03,41,13.10
2018,07,15,03,42,13.10
2018,07,15,03,43,13.10
2018,07,15,03,44,13.10
2018,07,15,03,45,13.10
2018,07,15,03,46,13.10
2018,07,15,03,47,13.00
2018,07,15,03,48,13.00
2018,07,15,03,49,12.90
2018,07,15,03,50,12.90
2018,07,15,03,51,12.90
2018,07,15,03,52,12.80
2018,07,15,03,53,12.80
2018,07,15,03,54,12.80
2018,07,15,03,55,12.80
2018,07,15,03,56,12.80
2018,07,15,03,57,12.80
2018,07,15,03,58,12.80
2018,07,15,03,59,12.80
2018,07,15,04,00,12.80
2018,07,15,04,01,12.80
2018,07,15,04,02,12.80
2018,07,15,04,03,12.80
2018,07,15,04,04,12.70
2018,07,15,04,05,12.70
2018,07,15,04,06,12.70
2018,07,15,04,07,12.70
2018,07,15,04,08,12.70
2018,07,15,04,09,12.60
2018,07,15,04,10,12.60
2018,07,15,04,11,12.60
2018,07,15,04,12,12.60
2018,07,15,04,13,12.70
2018,07,15,04,14,12.70
2018,07,15,04,15,12.70
2018,07,15,04,16,12.70
2018,07,15,04,17,12.70
2018,07,15,04,18,12.70
2018,07,15,04,19,12.70
2018,07,15,04,20,12.70
2018,07,15,04,21,12.60
2018,07,15,04,22,12.60
2018,07,15,04,23,12.60
2018,07,15,04,24,12.60
2018,07,15,04,25,12.70
2018,07,15,04,26,12.70
2018,07,15,04,27,12.70
2018,07,15,04,28,12.70
2018,07,15,04,29,12.70
2018,07,15,04,30,12.70
2018,07,15,04,31,12.70
2018,07,15,04,32,12.70
2018,07,15,04,33,12.70
2018,07,15,04,34,12.70
2018,07,15,04,35,12.70
2018,07,15,04,36,12.70
2018,07,15,04,37,12.70
2018,07,15,04,38,12.70
2018,07,15,04,39,12.70
2018,07,15,04,40,12.70
2018,07,15,04,41,12.80
2018,07,15,04,42,12.90
2018,07,15,04,43,13.00
2018,07,15,04,44,13.10
2018,07,15,04,45,13.20
2018,07,15,04,46,13.20
2018,07,15,04,47,13.20
2018,07,15,04,48,13.20
2018,07,15,04,49,13.20
2018,07,15,04,50,13.20
2018,07,15,04,51,13.20
2018,07,15,04,52,13.30
2018,07,15,04,53,13.30
2018,07,15,04,54,13.30
2018,07,15,04,55,13.30
2018,07,15,04,56,13.30
2018,07,15,04,57,13.40
2018,07,15,04,58,13.50
2018,07,15,04,59,13.50
2018,07,15,05,00,13.40
2018,07,15,05,01,13.40
2018,07,15,05,02,13.30
2018,07,15,05,03,13.30
2018,07,15,05,04,13.30
2018,07,15,05,05,13.20
2018,07,15,05,06,13.20
2018,07,15,05,07,13.20
2018,07,15,05,08,13.20
2018,07,15,05,09,13.20
2018,07,15,05,10,13.20
2018,07,15,05,11,13.20
2018,07,15,05,12,13.20
2018,07,15,05,13,13.10
2018,07,15,05,14,13.10
2018,07,15,05,15,13.10
2018,07,15,05,16,13.10
2018,07,15,05,17,13.10
2018,07,15,05,18,13.10
2018,07,15,05,19,13.10
2018,07,15,05,20,13.10
2018,07,15,05,21,13.00
2018,07,15,05,22,13.00
2018,07,15,05,23,13.00
2018,07,15,05,24,13.00
2018,07,15,05,25,13.10
2018,07,15,05,26,13.10
2018,07,15,05,27,13.10
2018,07,15,05,28,13.20
2018,07,15,05,29,13.20
2018,07,15,05,30,13.20
2018,07,15,05,31,13.20
2018,07,15,05,32,13.20
2018,07,15,05,33,13.10
2018,07,15,05,34,13.10
2018,07,15,05,35,13.10
2018,07,15,05,36,13.10
2018,07,15,05,37,13.10
2018,07,15,05,38,13.10
2018,07,15,05,39,13.10
2018,07,15,05,40,13.10
2018,07,15,05,41,13.00
2018,07,15,05,42,13.00
2018,07,15,05,43,12.90
2018,07,15,05,44,12.90
2018,07,15,05,45,12.90
2018,07,15,05,46,12.80
2018,07,15,05,47,12.80
2018,07,15,05,48,12.80
2018,07,15,05,49,12.80
2018,07,15,05,50,12.80
2018,07,15,05,51,12.90
2018,07,15,05,52,12.90
2018,07,15,05,53,12.90
2018,07,15,05,54,12.90
2018,07,15,05,55,13.00
2018,07,15,05,56,13.00
2018,07,15,05,57,13.00
2018,07,15,05,58,13.00
2018,07,15,05,59,13.00
2018,07,15,06,00,13.10
2018,07,15,06,01,13.10
2018,07,15,06,02,13.20
2018,07,15,06,03,13.20
2018,07,15,06,04,13.30
2018,07,15,06,05,13.30
2018,07,15,06,06,13.30
2018,07,15,06,07,13.30
2018,07,15,06,08,13.30
2018,07,15,06,09,13.30
2018,07,15,06,10,13.40
2018,07,15,06,11,13.40
2018,07,15,06,12,13.40
2018,07,15,06,13,13.40
2018,07,15,06,14,13.40
2018,07,15,06,15,13.40
2018,07,15,06,16,13.40
2018,07,15,06,17,13.40
2018,07,15,06,18,13.50
2018,07,15,06,19,13.50
2018,07,15,06,20,13.60
2018,07,15,06,21,13.60
2018,07,15,06,22,13.60
2018,07,15,06,23,13.60
2018,07,15,06,24,13.70
2018,07,15,06,25,13.70
2018,07,15,06,26,13.80
2018,07,15,06,27,13.90
2018,07,15,06,28,13.90
2018,07,15,06,29,14.00
2018,07,15,06,30,14.00
2018,07,15,06,31,14.10
2018,07,15,06,32,14.20
2018,07,15,06,33,14.20
2018,07,15,06,34,14.20
2018,07,15,06,35,14.30
2018,07,15,06,36,14.30
2018,07,15,06,37,14.30
2018,07,15,06,38,14.30
2018,07,15,06,39,14.30
2018,07,15,06,40,14.40
2018,07,15,06,41,14.50
2018,07,15,06,42,14.50
2018,07,15,06,43,14.60
2018,07,15,06,44,14.70
2018,07,15,06,45,14.80
2018,07,15,06,46,14.90
2018,07,15,06,47,15.00
2018,07,15,06,48,15.10
2018,07,15,06,49,15.20
2018,07,15,06,50,15.30
2018,07,15,06,51,15.30
2018,07,15,06,52,15.40
2018,07,15,06,53,15.40
2018,07,15,06,54,15.40
2018,07,15,06,55,15.40
2018,07,15,06,56,15.50
2018,07,15,06,57,15.50
2018,07,15,06,58,15.50
2018,07,15,06,59,15.50
2018,07,15,07,00,15.60
2018,07,15,07,01,15.60
2018,07,15,07,02,15.70
2018,07,15,07,03,15.70
2018,07,15,07,04,15.80
2018,07,15,07,05,15.80
2018,07,15,07,06,15.90
2018,07,15,07,07,16.00
2018,07,15,07,08,16.10
2018,07,15,07,09,16.20
2018,07,15,07,10,16.30
2018,07,15,07,11,16.40
2018,07,15,07,12,16.60
2018,07,15,07,13,16.60
2018,07,15,07,14,16.80
2018,07,15,07,15,16.80
2018,07,15,07,16,16.90
2018,07,15,07,17,17.00
2018,07,15,07,18,17.10
2018,07,15,07,19,17.10
2018,07,15,07,20,17.20
2018,07,15,07,21,17.20
2018,07,15,07,22,17.30
2018,07,15,07,23,17.40
2018,07,15,07,24,17.40
2018,07,15,07,25,17.50
2018,07,15,07,26,17.50
2018,07,15,07,27,17.60
2018,07,15,07,28,17.60
2018,07,15,07,29,17.70
2018,07,15,07,30,17.80
2018,07,15,07,31,17.90
2018,07,15,07,32,17.90
2018,07,15,07,33,18.00
2018,07,15,07,34,18.00
2018,07,15,07,35,18.10
2018,07,15,07,36,18.10
2018,07,15,07,37,18.10
2018,07,15,07,38,18.20
2018,07,15,07,39,18.20
2018,07,15,07,40,18.30
2018,07,15,07,41,18.40
2018,07,15,07,42,18.50
2018,07,15,07,43,18.60
2018,07,15,07,44,18.70
2018,07,15,07,45,18.70
2018,07,15,07,46,18.80
2018,07,15,07,47,18.90
2018,07,15,07,48,19.00
2018,07,15,07,49,19.10
2018,07,15,07,50,19.20
2018,07,15,07,51,19.30
2018,07,15,07,52,19.40
2018,07,15,07,53,19.50
2018,07,15,07,54,19.70
2018,07,15,07,55,19.80
2018,07,15,07,56,20.00
2018,07,15,07,57,20.10
2018,07,15,07,58,20.20
2018,07,15,07,59,20.30
2018,07,15,08,00,20.40
2018,07,15,08,01,20.60
2018,07,15,08,02,20.70
2018,07,15,08,03,20.80
2018,07,15,08,04,20.80
2018,07,15,08,05,20.80
2018,07,15,08,06,20.90
2018,07,15,08,07,20.90
2018,07,15,08,08,20.90
2018,07,15,08,09,20.90
2018,07,15,08,10,20.90
2018,07,15,08,11,20.90
2018,07,15,08,12,20.90
2018,07,15,08,13,21.00
2018,07,15,08,14,21.10
2018,07,15,08,15,21.20
2018,07,15,08,16,21.30
2018,07,15,08,17,21.40
2018,07,15,08,18,21.40
2018,07,15,08,19,21.40
2018,07,15,08,20,21.50
2018,07,15,08,21,21.50
2018,07,15,08,22,21.60
2018,07,15,08,23,21.60
2018,07,15,08,24,21.60
2018,07,15,08,25,21.60
2018,07,15,08,26,21.60
2018,07,15,08,27,21.60
2018,07,15,08,28,21.60
2018,07,15,08,29,21.70
2018,07,15,08,30,21.70
2018,07,15,08,31,21.70
2018,07,15,08,32,21.80
2018,07,15,08,33,21.80
2018,07,15,08,34,21.80
2018,07,15,08,35,21.80
2018,07,15,08,36,21.90
2018,07,15,08,37,22.00
2018,07,15,08,38,22.10
2018,07,15,08,39,22.20
2018,07,15,08,40,22.30
2018,07,15,08,41,22.40
2018,07,15,08,42,22.50
2018,07,15,08,43,22.60
2018,07,15,08,44,22.70
2018,07,15,08,45,22.70
2018,07,15,08,46,22.70
2018,07,15,08,47,22.70
2018,07,15,08,48,22.60
2018,07,15,08,49,22.50
2018,07,15,08,50,22.40
2018,07,15,08,51,22.40
2018,07,15,08,52,22.40
2018,07,15,08,53,22.30
2018,07,15,08,54,22.20
2018,07,15,08,55,22.10
2018,07,15,08,56,21.90
2018,07,15,08,57,21.80
2018,07,15,08,58,21.60
2018,07,15,08,59,21.50
2018,07,15,09,00,21.40
2018,07,15,09,01,21.40
2018,07,15,09,02,21.40
2018,07,15,09,03,21.40
2018,07,15,09,04,21.50
2018,07,15,09,05,21.50
2018,07,15,09,06,21.60
2018,07,15,09,07,21.60
2018,07,15,09,08,21.60
2018,07,15,09,09,21.50
2018,07,15,09,10,21.50
2018,07,15,09,11,21.50
2018,07,15,09,12,21.40
2018,07,15,09,13,21.40
2018,07,15,09,14,21.30
2018,07,15,09,15,21.30
2018,07,15,09,16,21.30
2018,07,15,09,17,21.30
2018,07,15,09,18,21.40
2018,07,15,09,19,21.40
2018,07,15,09,20,21.40
2018,07,15,09,21,21.40
2018,07,15,09,22,21.50
2018,07,15,09,23,21.50
2018,07,15,09,24,21.60
2018,07,15,09,25,21.70
2018,07,15,09,26,21.80
2018,07,15,09,27,21.90
2018,07,15,09,28,22.00
2018,07,15,09,29,22.00
2018,07,15,09,30,22.10
2018,07,15,09,31,22.20
2018,07,15,09,32,22.30
2018,07,15,09,33,22.30
2018,07,15,09,34,22.30
2018,07,15,09,35,22.30
2018,07,15,09,36,22.30
2018,07,15,09,37,22.30
2018,07,15,09,38,22.30
2018,07,15,09,39,22.40
2018,07,15,09,40,22.40
2018,07,15,09,41,22.40
2018,07,15,09,42,22.50
2018,07,15,09,43,22.50
2018,07,15,09,44,22.50
2018,07,15,09,45,22.50
2018,07,15,09,46,22.60
2018,07,15,09,47,22.60
2018,07,15,09,48,22.70
2018,07,15,09,49,22.70
2018,07,15,09,50,22.70
2018,07,15,09,51,22.70
2018,07,15,09,52,22.70
2018,07,15,09,53,22.60
2018,07,15,09,54,22.60
2018,07,15,09,55,22.60
2018,07,15,09,56,22.50
2018,07,15,09,57,22.50
2018,07,15,09,58,22.50
2018,07,15,09,59,22.40
2018,07,15,10,00,22.40
2018,07,15,10,01,22.40
2018,07,15,10,02,22.40
2018,07,15,10,03,22.40
2018,07,15,10,04,22.40
2018,07,15,10,05,22.50
2018,07,15,10,06,22.50
2018,07,15,10,07,22.50
2018,07,15,10,08,22.60
2018,07,15,10,09,22.70
2018,07,15,10,10,22.70
2018,07,15,10,11,22.80
2018,07,15,10,12,22.90
2018,07,15,10,13,22.90
2018,07,15,10,14,22.90
2018,07,15,10,15,22.90
2018,07,15,10,16,22.80
2018,07,15,10,17,22.80
2018,07,15,10,18,22.70
2018,07,15,10,19,22.70
2018,07,15,10,20,22.60
2018,07,15,10,21,22.60
2018,07,15,10,22,22.50
2018,07,15,10,23,22.40
2018,07,15,10,24,22.50
2018,07,15,10,25,22.60
2018,07,15,10,26,22.70
2018,07,15,10,27,22.70
2018,07,15,10,28,22.80
2018,07,15,10,29,22.70
2018,07,15,10,30,22.60
2018,07,15,10,31,22.60
2018,07,15,10,32,22.60
2018,07,15,10,33,22.70
2018,07,15,10,34,22.70
2018,07,15,10,35,22.60
2018,07,15,10,36,22.50
2018,07,15,10,37,22.50
2018,07,15,10,38,22.50
2018,07,15,10,39,22.60
2018,07,15,10,40,22.70
2018,07,15,10,41,22.80
2018,07,15,10,42,22.90
2018,07,15,10,43,23.00
2018,07,15,10,44,23.20
2018,07,15,10,45,23.20
2018,07,15,10,46,23.20
2018,07,15,10,47,23.20
2018,07,15,10,48,23.10
2018,07,15,10,49,23.10
2018,07,15,10,50,22.90
2018,07,15,10,51,22.90
2018,07,15,10,52,22.90
2018,07,15,10,53,23.00
2018,07,15,10,54,23.10
2018,07,15,10,55,23.20
2018,07,15,10,56,23.30
2018,07,15,10,57,23.40
2018,07,15,10,58,23.50
2018,07,15,10,59,23.50
2018,07,15,11,00,23.60
2018,07,15,11,01,23.60
2018,07,15,11,02,23.60
2018,07,15,11,03,23.70
2018,07,15,11,04,23.70
2018,07,15,11,05,23.70
2018,07,15,11,06,23.70
2018,07,15,11,07,23.70
2018,07,15,11,08,23.80
2018,07,15,11,09,23.80
2018,07,15,11,10,23.90
2018,07,15,11,11,24.00
2018,07,15,11,12,24.10
2018,07,15,11,13,24.20
2018,07,15,11,14,24.30
2018,07,15,11,15,24.30
2018,07,15,11,16,24.40
2018,07,15,11,17,24.40
2018,07,15,11,18,24.40
2018,07,15,11,19,24.50
2018,07,15,11,20,24.50
2018,07,15,11,21,24.50
2018,07,15,11,22,24.50
2018,07,15,11,23,24.50
2018,07,15,11,24,24.50
2018,07,15,11,25,24.50
2018,07,15,11,26,24.50
2018,07,15,11,27,24.60
2018,07,15,11,28,24.60
2018,07,15,11,29,24.60
2018,07,15,11,30,24.60
2018,07,15,11,31,24.60
2018,07,15,11,32,24.60
2018,07,15,11,33,24.60
2018,07,15,11,34,24.70
2018,07,15,11,35,24.90
2018,07,15,11,36,25.00
2018,07,15,11,37,25.00
2018,07,15,11,38,25.00
2018,07,15,11,39,25.00
2018,07,15,11,40,25.00
2018,07,15,11,41,24.90
2018,07,15,11,42,24.80
2018,07,15,11,43,24.80
2018,07,15,11,44,24.70
2018,07,15,11,45,24.80
2018,07,15,11,46,24.80
2018,07,15,11,47,24.80
2018,07,15,11,48,24.80
2018,07,15,11,49,24.90
2018,07,15,11,50,24.90
2018,07,15,11,51,24.90
2018,07,15,11,52,24.80
2018,07,15,11,53,24.80
2018,07,15,11,54,24.70
2018,07,15,11,55,24.60
2018,07,15,11,56,24.60
2018,07,15,11,57,24.60
2018,07,15,11,58,24.60
2018,07,15,11,59,24.50
2018,07,15,12,00,24.40
2018,07,15,12,01,24.40
2018,07,15,12,02,24.40
2018,07,15,12,03,24.40
2018,07,15,12,04,24.20
2018,07,15,12,05,24.10
2018,07,15,12,06,24.00
2018,07,15,12,07,23.90
2018,07,15,12,08,23.90
2018,07,15,12,09,23.90
2018,07,15,12,10,23.90
2018,07,15,12,11,24.00
2018,07,15,12,12,23.90
2018,07,15,12,13,23.80
2018,07,15,12,14,23.80
2018,07,15,12,15,23.70
2018,07,15,12,16,23.60
2018,07,15,12,17,23.50
2018,07,15,12,18,23.50
2018,07,15,12,19,23.60
2018,07,15,12,20,23.50
2018,07,15,12,21,23.40
2018,07,15,12,22,23.40
2018,07,15,12,23,23.40
2018,07,15,12,24,23.40
2018,07,15,12,25,23.40
2018,07,15,12,26,23.40
2018,07,15,12,27,23.40
2018,07,15,12,28,23.40
2018,07,15,12,29,23.50
2018,07,15,12,30,23.50
2018,07,15,12,31,23.50
2018,07,15,12,32,23.50
2018,07,15,12,33,23.50
2018,07,15,12,34,23.50
2018,07,15,12,35,23.50
2018,07,15,12,36,23.60
2018,07,15,12,37,23.60
2018,07,15,12,38,23.60
2018,07,15,12,39,23.60
2018,07,15,12,40,23.60
2018,07,15,12,41,23.60
2018,07,15,12,42,23.60
2018,07,15,12,43,23.50
2018,07,15,12,44,23.50
2018,07,15,12,45,23.50
2018,07,15,12,46,23.60
2018,07,15,12,47,23.60
2018,07,15,12,48,23.70
2018,07,15,12,49,23.70
2018,07,15,12,50,23.60
2018,07,15,12,51,23.50
2018,07,15,12,52,23.50
2018,07,15,12,53,23.50
2018,07,15,12,54,23.50
2018,07,15,12,55,23.50
2018,07,15,12,56,23.50
2018,07,15,12,57,23.50
2018,07,15,12,58,23.60
2018,07,15,12,59,23.60
2018,07,15,13,00,23.60
2018,07,15,13,01,23.70
2018,07,15,13,02,23.80
2018,07,15,13,03,23.80
2018,07,15,13,04,23.80
2018,07,15,13,05,23.80
2018,07,15,13,06,23.70
2018,07,15,13,07,23.70
2018,07,15,13,08,23.70
2018,07,15,13,09,23.70
2018,07,15,13,10,23.70
2018,07,15,13,11,23.70
2018,07,15,13,12,23.80
2018,07,15,13,13,23.80
2018,07,15,13,14,23.80
2018,07,15,13,15,23.80
2018,07,15,13,16,23.80
2018,07,15,13,17,23.90
2018,07,15,13,18,24.00
2018,07,15,13,19,24.00
2018,07,15,13,20,24.00
2018,07,15,13,21,23.90
2018,07,15,13,22,23.90
2018,07,15,13,23,24.00
2018,07,15,13,24,24.10
2018,07,15,13,25,24.00
2018,07,15,13,26,23.90
2018,07,15,13,27,23.90
2018,07,15,13,28,23.80
2018,07,15,13,29,23.80
2018,07,15,13,30,23.90
2018,07,15,13,31,23.90
2018,07,15,13,32,23.90
2018,07,15,13,33,23.80
2018,07,15,13,34,23.90
2018,07,15,13,35,23.90
2018,07,15,13,36,23.90
2018,07,15,13,37,23.80
2018,07,15,13,38,23.70
2018,07,15,13,39,23.60
2018,07,15,13,40,23.50
2018,07,15,13,41,23.40
2018,07,15,13,42,23.30
2018,07,15,13,43,23.40
2018,07,15,13,44,23.50
2018,07,15,13,45,23.60
2018,07,15,13,46,23.60
2018,07,15,13,47,23.60
2018,07,15,13,48,23.60
2018,07,15,13,49,23.60
2018,07,15,13,50,23.60
2018,07,15,13,51,23.60
2018,07,15,13,52,23.50
2018,07,15,13,53,23.50
2018,07,15,13,54,23.50
2018,07,15,13,55,23.50
2018,07,15,13,56,23.60
2018,07,15,13,57,23.70
2018,07,15,13,58,23.80
2018,07,15,13,59,23.80
2018,07,15,14,00,23.90
2018,07,15,14,01,24.10
2018,07,15,14,02,24.20
2018,07,15,14,03,24.40
2018,07,15,14,04,24.40
2018,07,15,14,05,24.40
2018,07,15,14,06,24.50
2018,07,15,14,07,24.60
2018,07,15,14,08,24.70
2018,07,15,14,09,24.80
2018,07,15,14,10,24.90
2018,07,15,14,11,24.90
2018,07,15,14,12,25.00
2018,07,15,14,13,25.00
2018,07,15,14,14,25.10
2018,07,15,14,15,25.10
2018,07,15,14,16,25.10
2018,07,15,14,17,25.10
2018,07,15,14,18,25.20
2018,07,15,14,19,25.30
2018,07,15,14,20,25.50
2018,07,15,14,21,25.70
2018,07,15,14,22,25.80
2018,07,15,14,23,25.90
2018,07,15,14,24,26.00
2018,07,15,14,25,26.10
2018,07,15,14,26,26.30
2018,07,15,14,27,26.30
2018,07,15,14,28,26.20
2018,07,15,14,29,26.10
2018,07,15,14,30,26.10
2018,07,15,14,31,26.20
2018,07,15,14,32,26.20
2018,07,15,14,33,26.30
2018,07,15,14,34,26.40
2018,07,15,14,35,26.50
2018,07,15,14,36,26.50
2018,07,15,14,37,26.50
2018,07,15,14,38,26.50
2018,07,15,14,39,26.60
2018,07,15,14,40,26.70
2018,07,15,14,41,26.70
2018,07,15,14,42,26.60
2018,07,15,14,43,26.60
2018,07,15,14,44,26.70
2018,07,15,14,45,26.70
2018,07,15,14,46,26.70
2018,07,15,14,47,26.70
2018,07,15,14,48,26.70
2018,07,15,14,49,26.70
2018,07,15,14,50,26.70
2018,07,15,14,51,26.80
2018,07,15,14,52,26.80
2018,07,15,14,53,26.90
2018,07,15,14,54,26.90
2018,07,15,14,55,26.90
2018,07,15,14,56,27.00
2018,07,15,14,57,27.10
2018,07,15,14,58,27.20
2018,07,15,14,59,27.30
2018,07,15,15,00,27.30
2018,07,15,15,01,27.20
2018,07,15,15,02,27.30
2018,07,15,15,03,27.30
2018,07,15,15,04,27.40
2018,07,15,15,05,27.50
2018,07,15,15,06,27.50
2018,07,15,15,07,27.50
2018,07,15,15,08,27.50
2018,07,15,15,09,27.40
2018,07,15,15,10,27.40
2018,07,15,15,11,27.40
2018,07,15,15,12,27.40
2018,07,15,15,13,27.40
2018,07,15,15,14,27.40
2018,07,15,15,15,27.30
2018,07,15,15,16,27.30
2018,07,15,15,17,27.30
2018,07,15,15,18,27.30
2018,07,15,15,19,27.30
2018,07,15,15,20,27.40
2018,07,15,15,21,27.40
2018,07,15,15,22,27.50
2018,07,15,15,23,27.50
2018,07,15,15,24,27.60
2018,07,15,15,25,27.60
2018,07,15,15,26,27.60
2018,07,15,15,27,27.60
2018,07,15,15,28,27.60
2018,07,15,15,29,27.60
2018,07,15,15,30,27.70
2018,07,15,15,31,27.70
2018,07,15,15,32,27.60
2018,07,15,15,33,27.50
2018,07,15,15,34,27.40
2018,07,15,15,35,27.40
2018,07,15,15,36,27.40
2018,07,15,15,37,27.40
2018,07,15,15,38,27.40
2018,07,15,15,39,27.40
2018,07,15,15,40,27.40
2018,07,15,15,41,27.40
2018,07,15,15,42,27.40
2018,07,15,15,43,27.40
2018,07,15,15,44,27.40
2018,07,15,15,45,27.40
2018,07,15,15,46,27.40
2018,07,15,15,47,27.40
2018,07,15,15,48,27.30
2018,07,15,15,49,27.30
2018,07,15,15,50,27.30
2018,07,15,15,51,27.30
2018,07,15,15,52,27.30
2018,07,15,15,53,27.30
2018,07,15,15,54,27.40
2018,07,15,15,55,27.40
2018,07,15,15,56,27.40
2018,07,15,15,57,27.40
2018,07,15,15,58,27.40
2018,07,15,15,59,27.40
2018,07,15,16,00,27.40
2018,07,15,16,01,27.40
2018,07,15,16,02,27.40
2018,07,15,16,03,27.40
2018,07,15,16,04,27.50
2018,07,15,16,05,27.60
2018,07,15,16,06,27.70
2018,07,15,16,07,27.70
2018,07,15,16,08,27.70
2018,07,15,16,09,27.70
2018,07,15,16,10,27.70
2018,07,15,16,11,27.60
2018,07,15,16,12,27.60
2018,07,15,16,13,27.60
2018,07,15,16,14,27.50
2018,07,15,16,15,27.50
2018,07,15,16,16,27.40
2018,07,15,16,17,27.50
2018,07,15,16,18,27.50
2018,07,15,16,19,27.50
2018,07,15,16,20,27.50
2018,07,15,16,21,27.40
2018,07,15,16,22,27.30
2018,07,15,16,23,27.20
2018,07,15,16,24,27.00
2018,07,15,16,25,26.70
2018,07,15,16,26,26.50
2018,07,15,16,27,26.40
2018,07,15,16,28,26.30
2018,07,15,16,29,26.30
2018,07,15,16,30,26.20
2018,07,15,16,31,26.10
2018,07,15,16,32,26.10
2018,07,15,16,33,26.10
2018,07,15,16,34,26.10
2018,07,15,16,35,26.10
2018,07,15,16,36,26.00
2018,07,15,16,37,26.00
2018,07,15,16,38,26.00
2018,07,15,16,39,26.00
2018,07,15,16,40,26.00
2018,07,15,16,41,26.00
2018,07,15,16,42,25.90
2018,07,15,16,43,25.90
2018,07,15,16,44,25.80
2018,07,15,16,45,25.70
2018,07,15,16,46,25.60
2018,07,15,16,47,25.50
2018,07,15,16,48,25.30
2018,07,15,16,49,25.30
2018,07,15,16,50,25.20
2018,07,15,16,51,25.00
2018,07,15,16,52,24.80
2018,07,15,16,53,24.70
2018,07,15,16,54,24.60
2018,07,15,16,55,24.50
2018,07,15,16,56,24.40
2018,07,15,16,57,24.40
2018,07,15,16,58,24.40
2018,07,15,16,59,24.40
2018,07,15,17,00,24.40
2018,07,15,17,01,24.40
2018,07,15,17,02,24.40
2018,07,15,17,03,24.30
2018,07,15,17,04,24.20
2018,07,15,17,05,24.10
2018,07,15,17,06,24.00
2018,07,15,17,07,23.90
2018,07,15,17,08,23.80
2018,07,15,17,09,23.70
2018,07,15,17,10,23.70
2018,07,15,17,11,23.60
2018,07,15,17,12,23.60
2018,07,15,17,13,23.60
2018,07,15,17,14,23.60
2018,07,15,17,15,23.60
2018,07,15,17,16,23.60
2018,07,15,17,17,23.60
2018,07,15,17,18,23.60
2018,07,15,17,19,23.60